Location: Unspecified
(0.0000°N, 0.0000°E)
Time: 23:37:39
(UTC+02:00)

Centaur D-1AR AC-41 - Visible Passes

Search period start: 31 July 2014 00:00
Search period end: 10 August 2014 00:00
Orbit: 670 x 36174 km, 21.4° (Epoch: 29 July)

Date Brightness Start Highest point End Pass type
(mag) Time Alt. Az. Time Alt. Az. Time Alt. Az.
31 Jul 9.0 00:00:00 34° ENE 06:58:13 82° E 08:44:48 10° ESE visible
31 Jul 5.0 20:01:59 10° W 20:06:58 63° NNW 20:32:42 10° ENE visible
31 Jul 10.0 23:56:37 10° ENE 04:27:04 40° E 05:59:54 10° ESE visible
02 Aug 9.3 05:22:19 10° WNW 06:58:02 29° WNW 10:23:13 10° W visible
03 Aug 6.9 02:26:56 10° WNW 04:51:43 64° NW 12:33:17 10° SE visible
03 Aug 7.9 23:49:11 10° WNW 05:52:19 82° NNW 10:01:15 10° SE visible
04 Aug 7.6 21:16:18 10° W 05:41:17 64° E 07:24:13 10° ESE visible
06 Aug 10.2 00:39:28 10° E 03:09:42 23° E 04:24:54 10° ESE visible
07 Aug 6.2 13:09:06 10° WSW 05:45:14 45° WNW 13:47:24 10° SE visible
08 Aug 7.6 01:06:18 10° WNW 04:37:20 74° NNW 11:16:17 10° SE visible
08 Aug 7.8 22:31:17 10° WNW 06:28:31 88° SE 08:42:44 10° ESE visible
09 Aug 5.6 19:59:20 10° W 20:05:00 52° N 20:40:51 10° ENE visible
